Weather Roundup
Issued by NWS

Home | Current Version | Previous Version | Graphics & Text | Print | Product List | Glossary Off
Versions: 1 2 3 4 5 6 7 8 9 10 11 12 13 14 15 16 17 18 19 20 21 22 23 24 25 26 27 28 29 30 31 32 33 34 35 36 37 38 39 40 41 42 43 44 45 46 47 48 49 50

000
NZUS93 KARX 202310
HRRWXR

CURRENT HOURLY OBSERVATIONS ACROSS
MUCH OF THE UPPER MISSISSIPPI VALLEY
NATIONAL WEATHER SERVICE LA CROSSE WI
600 PM CDT MON OCT 20 2014


...SOUTHEAST MINNESOTA...


CITY           SKY/WX    TMP DP  RH WIND       PRES   REMARKS
ROCHESTER      CLEAR     57  41  55 NW8       30.00R
ROCHESTER/MAYO FAIR      61  37  40 NW7       29.99S
WINONA         CLEAR     57  41  54 NW5       29.99R
AUSTIN         CLEAR     61  41  48 N8        30.00R
ALBERT LEA     CLEAR     63  39  42 NW7       30.00R
DODGE CENTER   CLEAR     57  43  58 N6        30.00R
PRESTON        CLEAR     57  41  55 N7        29.99S
OWATONNA       CLEAR     59  39  47 N6        30.00R
FARIBAULT      CLEAR     61  39  44 NW5       30.01R
$$

...ELSEWHERE IN MINNESOTA...


CITY           SKY/WX    TMP DP  RH WIND       PRES   REMARKS
MINNEAPOLIS    CLEAR     60  40  47 NW10      30.00R
INTNL FALLS    CLOUDY    46  35  65 NE5       30.07R
DULUTH         CLOUDY    48  36  63 N8        30.04R
RED WING       CLEAR     61  39  44 N5        29.99R
REDWOOD FALLS  CLEAR     65  39  38 N6        30.02R
MANKATO        CLEAR     63  37  39 N9        30.01R
WORTHINGTON    CLEAR     64  36  34 N7        30.04S
FAIRMONT       CLEAR     64  34  32 NW8       30.02S
$$

...SOUTHWEST WISCONSIN...


CITY           SKY/WX    TMP DP  RH WIND       PRES   REMARKS
LA CROSSE      CLEAR     60  41  49 N7        29.97R
PRAIRIE DU CHI CLEAR     62  39  43 NW8       29.96R
BOSCOBEL       PTCLDY    61  41  47 N8        29.96R
LONE ROCK      MOCLDY    61  40  45 N8        29.97R
PLATTEVILLE    CLEAR     59  42  54 N7        29.97R
FORT MC COY    CLEAR     55  37  50 N7        29.99R
CAMP DOUGLAS   MOCLDY    55  41  58 N8        29.99R
VIROQUA        FAIR      54  41  61 N7        29.98R
WIS DELLS      CLOUDY    55  37  50 N5        29.97R
$$

...ELSEWHERE IN WISCONSIN...


CITY           SKY/WX    TMP DP  RH WIND       PRES   REMARKS
MILWAUKEE      MOCLDY    54  41  61 NW7       29.94R
MADISON        CLOUDY    54  42  64 N8        29.97R
GREEN BAY      CLOUDY    50  44  80 NW3       29.95R
EAU CLAIRE     PTCLDY    53  38  56 N5        30.01R
BLACK RVR FLS  MOCLDY    56  37  47 N7        29.99R
MEDFORD        CLOUDY    48  39  71 N6        30.00R
WAUSAU         CLOUDY    50  39  66 N8        29.97R
WIS RAPIDS     CLOUDY    52  40  63 N8        30.00R
MARSHFIELD     CLOUDY    51  39  63 N6        29.99R
RICE LAKE      CLOUDY    51  39  64 N8        30.04R
$$

...NORTHEAST IOWA...


CITY           SKY/WX    TMP DP  RH WIND       PRES   REMARKS
DECORAH        CLEAR     59  41  51 N13       29.97R
MASON CITY     CLEAR     61  42  49 NW10      30.01S
CHARLES CITY   CLEAR     63  41  45 NW8       29.99S
OELWEIN        CLEAR     63  41  45 NW10      29.98R
$$

...ELSEWHERE IN IOWA...


CITY           SKY/WX    TMP DP  RH WIND       PRES   REMARKS
DES MOINES     PTCLDY    68  38  33 NW8       30.01R
IOWA CITY      CLEAR     65  42  43 NW12      29.97R
FORT DODGE     CLEAR     66  39  37 NW3       30.02S
$$

...NORTHERN ILLINOIS...


CITY           SKY/WX    TMP DP  RH WIND       PRES   REMARKS
CHICAGO-OHARE  MOCLDY    56  44  64 NE7       29.93R
CHICAGO-MIDWAY MOCLDY    57  47  69 N9        29.94R
MOLINE         CLEAR     65  42  43 NW9       29.94R
ROCKFORD       MOCLDY    58  41  53 N13       29.96R
PEORIA         PTCLDY    65  43  44 NW6       29.95R
$$

NOTE: "FAIR" INDICATES FEW OR NO CLOUDS BELOW 12,000 FEET WITH NO
SIGNIFICANT WEATHER AND/OR OBSTRUCTIONS TO VISIBILITY. WIND
SPEEDS ARE IN MILES-PER-HOUR.



USA.gov is the U.S. government's official web portal to all federal, state and local government web resources and services.